Time,TemperatureF,DewpointF,PressureIn,WindDirection,WindDirectionDegrees,WindSpeedMPH,WindSpeedGustMPH,Humidity,HourlyPrecipIn,Conditions,Clouds,dailyrainin,SoftwareType,DateUTC
2013-04-20 00:04:00,46.8,31.0,-100.00,North,-999,-999.0,-999.0,54,-99.99,,,-99.99,,2013-04-20 07:04:00,
2013-04-20 00:09:00,46.6,30.8,-100.00,North,-999,-999.0,-999.0,54,-99.99,,,-99.99,,2013-04-20 07:09:00,
2013-04-20 00:14:00,46.4,30.7,-100.00,North,-999,-999.0,-999.0,54,-99.99,,,-99.99,,2013-04-20 07:14:00,
2013-04-20 00:19:00,46.4,30.7,-100.00,North,-999,-999.0,-999.0,54,-99.99,,,-99.99,,2013-04-20 07:19:00,
2013-04-20 00:24:00,46.4,30.7,-100.00,North,-999,-999.0,-999.0,54,-99.99,,,-99.99,,2013-04-20 07:24:00,
2013-04-20 00:29:00,46.4,30.7,-100.00,North,-999,-999.0,-999.0,54,-99.99,,,-99.99,,2013-04-20 07:29:00,
2013-04-20 00:34:00,46.4,30.7,-100.00,North,-999,-999.0,-999.0,54,-99.99,,,-99.99,,2013-04-20 07:34:00,
2013-04-20 00:39:00,46.2,31.0,-100.00,North,-999,-999.0,-999.0,55,-99.99,,,-99.99,,2013-04-20 07:39:00,
2013-04-20 00:49:00,46.3,30.8,-100.00,North,-999,-999.0,-999.0,54,-99.99,,,-99.99,,2013-04-20 07:49:00,
2013-04-20 00:50:00,46.2,31.0,-100.00,North,-999,-999.0,-999.0,55,-99.99,,,-99.99,,2013-04-20 07:50:00,
2013-04-20 00:51:00,47.7,30.9,-100.00,North,-999,-999.0,-999.0,52,-99.99,,,-99.99,,2013-04-20 07:51:00,
2013-04-20 00:54:00,46.4,30.7,-100.00,North,-999,-999.0,-999.0,54,-99.99,,,-99.99,,2013-04-20 07:54:00,
2013-04-20 01:04:00,46.2,31.0,-100.00,North,-999,-999.0,-999.0,55,-99.99,,,-99.99,,2013-04-20 08:04:00,
2013-04-20 01:09:00,46.2,31.0,-100.00,North,-999,-999.0,-999.0,55,-99.99,,,-99.99,,2013-04-20 08:09:00,
2013-04-20 01:19:00,46.4,31.1,-100.00,North,-999,-999.0,-999.0,55,-99.99,,,-99.99,,2013-04-20 08:19:00,
2013-04-20 01:20:00,46.2,31.0,-100.00,North,-999,-999.0,-999.0,55,-99.99,,,-99.99,,2013-04-20 08:20:00,
2013-04-20 01:24:00,46.2,31.0,-100.00,North,-999,-999.0,-999.0,55,-99.99,,,-99.99,,2013-04-20 08:24:00,
2013-04-20 01:29:00,46.2,31.0,-100.00,North,-999,-999.0,-999.0,55,-99.99,,,-99.99,,2013-04-20 08:29:00,
2013-04-20 01:34:00,46.0,30.8,-100.00,North,-999,-999.0,-999.0,55,-99.99,,,-99.99,,2013-04-20 08:34:00,
2013-04-20 01:39:00,46.0,30.8,-100.00,North,-999,-999.0,-999.0,55,-99.99,,,-99.99,,2013-04-20 08:39:00,
2013-04-20 01:49:00,45.9,30.6,-100.00,North,-999,-999.0,-999.0,55,-99.99,,,-99.99,,2013-04-20 08:49:00,
2013-04-20 01:50:00,45.9,30.6,-100.00,North,-999,-999.0,-999.0,55,-99.99,,,-99.99,,2013-04-20 08:50:00,
2013-04-20 01:54:00,45.7,30.5,-100.00,North,-999,-999.0,-999.0,55,-99.99,,,-99.99,,2013-04-20 08:54:00,
2013-04-20 01:59:00,45.5,30.7,-100.00,North,-999,-999.0,-999.0,56,-99.99,,,-99.99,,2013-04-20 08:59:00,
2013-04-20 02:19:00,45.5,30.7,-100.00,North,-999,-999.0,-999.0,56,-99.99,,,-99.99,,2013-04-20 09:19:00,
2013-04-20 02:20:00,45.3,30.6,-100.00,North,-999,-999.0,-999.0,56,-99.99,,,-99.99,,2013-04-20 09:20:00,
2013-04-20 02:24:00,45.5,30.7,-100.00,North,-999,-999.0,-999.0,56,-99.99,,,-99.99,,2013-04-20 09:24:00,
2013-04-20 02:29:00,45.5,30.7,-100.00,North,-999,-999.0,-999.0,56,-99.99,,,-99.99,,2013-04-20 09:29:00,
2013-04-20 02:34:00,45.7,30.9,-100.00,North,-999,-999.0,-999.0,56,-99.99,,,-99.99,,2013-04-20 09:34:00,
2013-04-20 02:39:00,45.7,30.9,-100.00,North,-999,-999.0,-999.0,56,-99.99,,,-99.99,,2013-04-20 09:39:00,
2013-04-20 02:49:00,45.5,30.7,-100.00,North,-999,-999.0,-999.0,56,-99.99,,,-99.99,,2013-04-20 09:49:00,
2013-04-20 02:50:00,45.7,30.9,-100.00,North,-999,-999.0,-999.0,56,-99.99,,,-99.99,,2013-04-20 09:50:00,
2013-04-20 02:54:00,45.5,30.7,-100.00,North,-999,-999.0,-999.0,56,-99.99,,,-99.99,,2013-04-20 09:54:00,
2013-04-20 02:59:00,45.5,30.7,-100.00,North,-999,-999.0,-999.0,56,-99.99,,,-99.99,,2013-04-20 09:59:00,
2013-04-20 03:19:00,45.1,30.4,-100.00,North,-999,-999.0,-999.0,56,-99.99,,,-99.99,,2013-04-20 10:19:00,
2013-04-20 03:24:00,45.0,30.2,-100.00,North,-999,-999.0,-999.0,56,-99.99,,,-99.99,,2013-04-20 10:24:00,
2013-04-20 03:39:00,44.4,30.2,-100.00,North,-999,-999.0,-999.0,57,-99.99,,,-99.99,,2013-04-20 10:39:00,
2013-04-20 03:49:00,44.2,30.0,-100.00,North,-999,-999.0,-999.0,57,-99.99,,,-99.99,,2013-04-20 10:49:00,
2013-04-20 03:50:00,44.2,30.0,-100.00,North,-999,-999.0,-999.0,57,-99.99,,,-99.99,,2013-04-20 10:50:00,
2013-04-20 03:54:00,44.2,30.0,-100.00,North,-999,-999.0,-999.0,57,-99.99,,,-99.99,,2013-04-20 10:54:00,
2013-04-20 03:59:00,44.1,30.2,-100.00,North,-999,-999.0,-999.0,58,-99.99,,,-99.99,,2013-04-20 10:59:00,
2013-04-20 04:19:00,43.9,30.1,-100.00,North,-999,-999.0,-999.0,58,-99.99,,,-99.99,,2013-04-20 11:19:00,
2013-04-20 04:20:00,44.1,30.2,-100.00,North,-999,-999.0,-999.0,58,-99.99,,,-99.99,,2013-04-20 11:20:00,
2013-04-20 04:24:00,43.9,30.1,-100.00,North,-999,-999.0,-999.0,58,-99.99,,,-99.99,,2013-04-20 11:24:00,
2013-04-20 04:29:00,43.7,29.9,-100.00,North,-999,-999.0,-999.0,58,-99.99,,,-99.99,,2013-04-20 11:29:00,
2013-04-20 04:34:00,43.7,29.9,-100.00,North,-999,-999.0,-999.0,58,-99.99,,,-99.99,,2013-04-20 11:34:00,
2013-04-20 04:39:00,43.7,29.9,-100.00,North,-999,-999.0,-999.0,58,-99.99,,,-99.99,,2013-04-20 11:39:00,
2013-04-20 04:49:00,43.5,29.7,-100.00,North,-999,-999.0,-999.0,58,-99.99,,,-99.99,,2013-04-20 11:49:00,
2013-04-20 04:50:00,43.5,29.7,-100.00,North,-999,-999.0,-999.0,58,-99.99,,,-99.99,,2013-04-20 11:50:00,
2013-04-20 04:54:00,43.5,29.7,-100.00,North,-999,-999.0,-999.0,58,-99.99,,,-99.99,,2013-04-20 11:54:00,
2013-04-20 04:59:00,43.5,29.7,-100.00,North,-999,-999.0,-999.0,58,-99.99,,,-99.99,,2013-04-20 11:59:00,
2013-04-20 05:04:00,43.5,29.7,-100.00,North,-999,-999.0,-999.0,58,-99.99,,,-99.99,,2013-04-20 12:04:00,
2013-04-20 05:09:00,43.3,29.6,-100.00,North,-999,-999.0,-999.0,58,-99.99,,,-99.99,,2013-04-20 12:09:00,
2013-04-20 05:19:00,43.3,29.6,-100.00,North,-999,-999.0,-999.0,58,-99.99,,,-99.99,,2013-04-20 12:19:00,
2013-04-20 05:20:00,43.3,29.6,-100.00,North,-999,-999.0,-999.0,58,-99.99,,,-99.99,,2013-04-20 12:20:00,
2013-04-20 05:24:00,43.3,29.6,-100.00,North,-999,-999.0,-999.0,58,-99.99,,,-99.99,,2013-04-20 12:24:00,
2013-04-20 05:29:00,43.3,29.6,-100.00,North,-999,-999.0,-999.0,58,-99.99,,,-99.99,,2013-04-20 12:29:00,
2013-04-20 05:34:00,43.5,29.7,-100.00,North,-999,-999.0,-999.0,58,-99.99,,,-99.99,,2013-04-20 12:34:00,
2013-04-20 05:39:00,43.5,29.3,-100.00,North,-999,-999.0,-999.0,57,-99.99,,,-99.99,,2013-04-20 12:39:00,
2013-04-20 05:49:00,43.9,29.6,-100.00,North,-999,-999.0,-999.0,57,-99.99,,,-99.99,,2013-04-20 12:49:00,
2013-04-20 05:50:00,43.7,29.5,-100.00,North,-999,-999.0,-999.0,57,-99.99,,,-99.99,,2013-04-20 12:50:00,
2013-04-20 05:54:00,43.9,29.2,-100.00,North,-999,-999.0,-999.0,56,-99.99,,,-99.99,,2013-04-20 12:54:00,
2013-04-20 05:59:00,44.1,29.4,-100.00,North,-999,-999.0,-999.0,56,-99.99,,,-99.99,,2013-04-20 12:59:00,
2013-04-20 06:04:00,44.2,29.5,-100.00,North,-999,-999.0,-999.0,56,-99.99,,,-99.99,,2013-04-20 13:04:00,
2013-04-20 06:09:00,44.2,29.5,-100.00,North,-999,-999.0,-999.0,56,-99.99,,,-99.99,,2013-04-20 13:09:00,
2013-04-20 06:19:00,43.9,28.8,-100.00,North,-999,-999.0,-999.0,55,-99.99,,,-99.99,,2013-04-20 13:19:00,
2013-04-20 06:20:00,44.1,28.9,-100.00,North,-999,-999.0,-999.0,55,-99.99,,,-99.99,,2013-04-20 13:20:00,
2013-04-20 06:24:00,43.7,28.2,-100.00,North,-999,-999.0,-999.0,54,-99.99,,,-99.99,,2013-04-20 13:24:00,
2013-04-20 06:29:00,43.7,28.2,-100.00,North,-999,-999.0,-999.0,54,-99.99,,,-99.99,,2013-04-20 13:29:00,
2013-04-20 06:34:00,43.7,28.2,-100.00,North,-999,-999.0,-999.0,54,-99.99,,,-99.99,,2013-04-20 13:34:00,
2013-04-20 06:39:00,43.9,28.3,-100.00,North,-999,-999.0,-999.0,54,-99.99,,,-99.99,,2013-04-20 13:39:00,
2013-04-20 06:49:00,44.1,28.9,-100.00,North,-999,-999.0,-999.0,55,-99.99,,,-99.99,,2013-04-20 13:49:00,
2013-04-20 06:50:00,43.9,28.8,-100.00,North,-999,-999.0,-999.0,55,-99.99,,,-99.99,,2013-04-20 13:50:00,
2013-04-20 06:54:00,44.2,29.5,-100.00,North,-999,-999.0,-999.0,56,-99.99,,,-99.99,,2013-04-20 13:54:00,
2013-04-20 06:59:00,44.2,29.5,-100.00,North,-999,-999.0,-999.0,56,-99.99,,,-99.99,,2013-04-20 13:59:00,
2013-04-20 07:04:00,44.4,29.7,-100.00,North,-999,-999.0,-999.0,56,-99.99,,,-99.99,,2013-04-20 14:04:00,
2013-04-20 07:09:00,44.6,29.9,-100.00,North,-999,-999.0,-999.0,56,-99.99,,,-99.99,,2013-04-20 14:09:00,
2013-04-20 07:19:00,44.6,29.9,-100.00,North,-999,-999.0,-999.0,56,-99.99,,,-99.99,,2013-04-20 14:19:00,
2013-04-20 07:20:00,44.6,29.9,-100.00,North,-999,-999.0,-999.0,56,-99.99,,,-99.99,,2013-04-20 14:20:00,
2013-04-20 07:24:00,44.6,29.9,-100.00,North,-999,-999.0,-999.0,56,-99.99,,,-99.99,,2013-04-20 14:24:00,
2013-04-20 07:29:00,44.6,29.9,-100.00,North,-999,-999.0,-999.0,56,-99.99,,,-99.99,,2013-04-20 14:29:00,
2013-04-20 07:34:00,44.8,29.6,-100.00,North,-999,-999.0,-999.0,55,-99.99,,,-99.99,,2013-04-20 14:34:00,
2013-04-20 07:39:00,44.8,29.6,-100.00,North,-999,-999.0,-999.0,55,-99.99,,,-99.99,,2013-04-20 14:39:00,
2013-04-20 07:49:00,44.8,29.6,-100.00,North,-999,-999.0,-999.0,55,-99.99,,,-99.99,,2013-04-20 14:49:00,
2013-04-20 07:50:00,44.8,29.6,-100.00,North,-999,-999.0,-999.0,55,-99.99,,,-99.99,,2013-04-20 14:50:00,
2013-04-20 07:59:00,45.1,29.5,-100.00,North,-999,-999.0,-999.0,54,-99.99,,,-99.99,,2013-04-20 14:59:00,
2013-04-20 08:04:00,45.3,29.7,-100.00,North,-999,-999.0,-999.0,54,-99.99,,,-99.99,,2013-04-20 15:04:00,
2013-04-20 08:09:00,45.5,29.8,-100.00,North,-999,-999.0,-999.0,54,-99.99,,,-99.99,,2013-04-20 15:09:00,
2013-04-20 08:19:00,45.9,30.2,-100.00,North,-999,-999.0,-999.0,54,-99.99,,,-99.99,,2013-04-20 15:19:00,
2013-04-20 08:20:00,45.5,29.8,-100.00,North,-999,-999.0,-999.0,54,-99.99,,,-99.99,,2013-04-20 15:20:00,
2013-04-20 08:24:00,45.9,29.7,-100.00,North,-999,-999.0,-999.0,53,-99.99,,,-99.99,,2013-04-20 15:24:00,
2013-04-20 08:29:00,46.0,29.9,-100.00,North,-999,-999.0,-999.0,53,-99.99,,,-99.99,,2013-04-20 15:29:00,
2013-04-20 08:34:00,46.2,30.0,-100.00,North,-999,-999.0,-999.0,53,-99.99,,,-99.99,,2013-04-20 15:34:00,
2013-04-20 08:39:00,46.2,30.0,-100.00,North,-999,-999.0,-999.0,53,-99.99,,,-99.99,,2013-04-20 15:39:00,
2013-04-20 08:49:00,46.4,29.7,-100.00,North,-999,-999.0,-999.0,52,-99.99,,,-99.99,,2013-04-20 15:49:00,
2013-04-20 08:50:00,46.4,29.7,-100.00,North,-999,-999.0,-999.0,52,-99.99,,,-99.99,,2013-04-20 15:50:00,
2013-04-20 08:54:00,46.6,29.9,-100.00,North,-999,-999.0,-999.0,52,-99.99,,,-99.99,,2013-04-20 15:54:00,
2013-04-20 08:59:00,46.8,30.1,-100.00,North,-999,-999.0,-999.0,52,-99.99,,,-99.99,,2013-04-20 15:59:00,
2013-04-20 09:04:00,46.9,30.0,-100.00,North,-999,-999.0,-999.0,51,-99.99,,,-99.99,,2013-04-20 16:04:00,
2013-04-20 09:09:00,47.1,29.9,-100.00,North,-999,-999.0,-999.0,51,-99.99,,,-99.99,,2013-04-20 16:09:00,
2013-04-20 09:19:00,47.3,30.6,-100.00,North,-999,-999.0,-999.0,52,-99.99,,,-99.99,,2013-04-20 16:19:00,
2013-04-20 09:20:00,47.1,30.4,-100.00,North,-999,-999.0,-999.0,52,-99.99,,,-99.99,,2013-04-20 16:20:00,
2013-04-20 09:24:00,47.5,31.2,-100.00,North,-999,-999.0,-999.0,53,-99.99,,,-99.99,,2013-04-20 16:24:00,
2013-04-20 09:29:00,47.7,31.4,-100.00,North,-999,-999.0,-999.0,53,-99.99,,,-99.99,,2013-04-20 16:29:00,
2013-04-20 09:34:00,47.8,31.5,-100.00,North,-999,-999.0,-999.0,53,-99.99,,,-99.99,,2013-04-20 16:34:00,
2013-04-20 09:39:00,48.0,31.2,-100.00,North,-999,-999.0,-999.0,52,-99.99,,,-99.99,,2013-04-20 16:39:00,
2013-04-20 09:49:00,48.6,31.7,-100.00,North,-999,-999.0,-999.0,52,-99.99,,,-99.99,,2013-04-20 16:49:00,
2013-04-20 09:50:00,48.2,31.2,-100.00,North,-999,-999.0,-999.0,51,-99.99,,,-99.99,,2013-04-20 16:50:00,
2013-04-20 09:54:00,49.1,32.2,-100.00,North,-999,-999.0,-999.0,52,-99.99,,,-99.99,,2013-04-20 16:54:00,
2013-04-20 09:59:00,49.4,32.0,-100.00,North,-999,-999.0,-999.0,51,-99.99,,,-99.99,,2013-04-20 16:59:00,
2013-04-20 10:19:00,51.3,32.8,-100.00,North,-999,-999.0,-999.0,49,-99.99,,,-99.99,,2013-04-20 17:19:00,
2013-04-20 10:20:00,51.0,32.8,-100.00,North,-999,-999.0,-999.0,49,-99.99,,,-99.99,,2013-04-20 17:20:00,
2013-04-20 10:24:00,51.4,32.9,-100.00,North,-999,-999.0,-999.0,49,-99.99,,,-99.99,,2013-04-20 17:24:00,
2013-04-20 10:29:00,51.6,33.1,-100.00,North,-999,-999.0,-999.0,49,-99.99,,,-99.99,,2013-04-20 17:29:00,
2013-04-20 10:34:00,51.6,32.6,-100.00,North,-999,-999.0,-999.0,48,-99.99,,,-99.99,,2013-04-20 17:34:00,
2013-04-20 10:39:00,51.9,32.6,-100.00,North,-999,-999.0,-999.0,47,-99.99,,,-99.99,,2013-04-20 17:39:00,
2013-04-20 10:49:00,52.1,32.5,-100.00,North,-999,-999.0,-999.0,47,-99.99,,,-99.99,,2013-04-20 17:49:00,
2013-04-20 10:50:00,52.0,32.4,-100.00,North,-999,-999.0,-999.0,47,-99.99,,,-99.99,,2013-04-20 17:50:00,
2013-04-20 10:54:00,52.4,32.8,-100.00,North,-999,-999.0,-999.0,47,-99.99,,,-99.99,,2013-04-20 17:54:00,
2013-04-20 10:59:00,53.1,33.4,-100.00,North,-999,-999.0,-999.0,47,-99.99,,,-99.99,,2013-04-20 17:59:00,
2013-04-20 11:04:00,53.1,33.4,-100.00,North,-999,-999.0,-999.0,47,-99.99,,,-99.99,,2013-04-20 18:04:00,
2013-04-20 11:19:00,53.8,33.5,-100.00,North,-999,-999.0,-999.0,46,-99.99,,,-99.99,,2013-04-20 18:19:00,
2013-04-20 11:20:00,53.2,33.5,-100.00,North,-999,-999.0,-999.0,47,-99.99,,,-99.99,,2013-04-20 18:20:00,
2013-04-20 11:24:00,53.9,33.6,-100.00,North,-999,-999.0,-999.0,46,-99.99,,,-99.99,,2013-04-20 18:24:00,
2013-04-20 11:29:00,54.6,34.2,-100.00,North,-999,-999.0,-999.0,46,-99.99,,,-99.99,,2013-04-20 18:29:00,
2013-04-20 11:34:00,54.9,34.5,-100.00,North,-999,-999.0,-999.0,46,-99.99,,,-99.99,,2013-04-20 18:34:00,
2013-04-20 11:39:00,55.2,34.8,-100.00,North,-999,-999.0,-999.0,46,-99.99,,,-99.99,,2013-04-20 18:39:00,
2013-04-20 11:49:00,55.8,35.3,-100.00,North,-999,-999.0,-999.0,46,-99.99,,,-99.99,,2013-04-20 18:49:00,
2013-04-20 11:50:00,55.3,34.6,-100.00,North,-999,-999.0,-999.0,45,-99.99,,,-99.99,,2013-04-20 18:50:00,
2013-04-20 11:54:00,55.9,35.5,-100.00,North,-999,-999.0,-999.0,46,-99.99,,,-99.99,,2013-04-20 18:54:00,
2013-04-20 11:59:00,55.9,35.5,-100.00,North,-999,-999.0,-999.0,46,-99.99,,,-99.99,,2013-04-20 18:59:00,
2013-04-20 12:04:00,56.5,36.0,-100.00,North,-999,-999.0,-999.0,46,-99.99,,,-99.99,,2013-04-20 19:04:00,
2013-04-20 12:09:00,56.8,36.2,-100.00,North,-999,-999.0,-999.0,46,-99.99,,,-99.99,,2013-04-20 19:09:00,
2013-04-20 12:19:00,57.1,36.5,-100.00,North,-999,-999.0,-999.0,46,-99.99,,,-99.99,,2013-04-20 19:19:00,
2013-04-20 12:20:00,56.6,36.0,-100.00,North,-999,-999.0,-999.0,46,-99.99,,,-99.99,,2013-04-20 19:20:00,
2013-04-20 12:24:00,57.6,36.9,-100.00,North,-999,-999.0,-999.0,46,-99.99,,,-99.99,,2013-04-20 19:24:00,
2013-04-20 12:29:00,57.7,37.0,-100.00,North,-999,-999.0,-999.0,46,-99.99,,,-99.99,,2013-04-20 19:29:00,
2013-04-20 12:34:00,57.7,37.1,-100.00,North,-999,-999.0,-999.0,46,-99.99,,,-99.99,,2013-04-20 19:34:00,
2013-04-20 12:39:00,58.6,37.9,-100.00,North,-999,-999.0,-999.0,46,-99.99,,,-99.99,,2013-04-20 19:39:00,
2013-04-20 12:49:00,59.6,38.8,-100.00,North,-999,-999.0,-999.0,46,-99.99,,,-99.99,,2013-04-20 19:49:00,
2013-04-20 12:50:00,58.8,38.1,-100.00,North,-999,-999.0,-999.0,46,-99.99,,,-99.99,,2013-04-20 19:50:00,
2013-04-20 12:54:00,59.5,38.2,-100.00,North,-999,-999.0,-999.0,45,-99.99,,,-99.99,,2013-04-20 19:54:00,
2013-04-20 12:59:00,60.1,39.2,-100.00,North,-999,-999.0,-999.0,46,-99.99,,,-99.99,,2013-04-20 19:59:00,
2013-04-20 13:04:00,60.1,38.7,-100.00,North,-999,-999.0,-999.0,45,-99.99,,,-99.99,,2013-04-20 20:04:00,
2013-04-20 13:09:00,60.4,39.6,-100.00,North,-999,-999.0,-999.0,46,-99.99,,,-99.99,,2013-04-20 20:09:00,
2013-04-20 13:19:00,60.5,39.1,-100.00,North,-999,-999.0,-999.0,45,-99.99,,,-99.99,,2013-04-20 20:19:00,
2013-04-20 13:20:00,60.5,39.1,-100.00,North,-999,-999.0,-999.0,45,-99.99,,,-99.99,,2013-04-20 20:20:00,
2013-04-20 13:24:00,60.6,39.2,-100.00,North,-999,-999.0,-999.0,45,-99.99,,,-99.99,,2013-04-20 20:24:00,
2013-04-20 13:29:00,61.0,39.5,-100.00,North,-999,-999.0,-999.0,45,-99.99,,,-99.99,,2013-04-20 20:29:00,
2013-04-20 13:34:00,61.2,39.7,-100.00,North,-999,-999.0,-999.0,45,-99.99,,,-99.99,,2013-04-20 20:34:00,
2013-04-20 13:39:00,61.2,39.4,-100.00,North,-999,-999.0,-999.0,44,-99.99,,,-99.99,,2013-04-20 20:39:00,
2013-04-20 13:49:00,61.3,39.2,-100.00,North,-999,-999.0,-999.0,44,-99.99,,,-99.99,,2013-04-20 20:49:00,
2013-04-20 13:50:00,61.5,39.4,-100.00,North,-999,-999.0,-999.0,44,-99.99,,,-99.99,,2013-04-20 20:50:00,
2013-04-20 13:54:00,61.2,39.1,-100.00,North,-999,-999.0,-999.0,44,-99.99,,,-99.99,,2013-04-20 20:54:00,
2013-04-20 13:59:00,61.7,39.6,-100.00,North,-999,-999.0,-999.0,44,-99.99,,,-99.99,,2013-04-20 20:59:00,
2013-04-20 14:04:00,61.2,39.2,-100.00,North,-999,-999.0,-999.0,44,-99.99,,,-99.99,,2013-04-20 21:04:00,
2013-04-20 14:09:00,61.7,39.6,-100.00,North,-999,-999.0,-999.0,44,-99.99,,,-99.99,,2013-04-20 21:09:00,
2013-04-20 14:19:00,61.7,39.0,-100.00,North,-999,-999.0,-999.0,43,-99.99,,,-99.99,,2013-04-20 21:19:00,
2013-04-20 14:20:00,61.5,38.8,-100.00,North,-999,-999.0,-999.0,43,-99.99,,,-99.99,,2013-04-20 21:20:00,
2013-04-20 14:24:00,61.3,38.4,-100.00,North,-999,-999.0,-999.0,42,-99.99,,,-99.99,,2013-04-20 21:24:00,
2013-04-20 14:29:00,61.2,38.6,-100.00,North,-999,-999.0,-999.0,43,-99.99,,,-99.99,,2013-04-20 21:29:00,
2013-04-20 14:34:00,60.4,38.4,-100.00,North,-999,-999.0,-999.0,44,-99.99,,,-99.99,,2013-04-20 21:34:00,
2013-04-20 14:39:00,60.5,38.8,-100.00,North,-999,-999.0,-999.0,44,-99.99,,,-99.99,,2013-04-20 21:39:00,
2013-04-20 14:49:00,60.1,38.7,-100.00,North,-999,-999.0,-999.0,45,-99.99,,,-99.99,,2013-04-20 21:49:00,
2013-04-20 14:50:00,60.6,39.2,-100.00,North,-999,-999.0,-999.0,45,-99.99,,,-99.99,,2013-04-20 21:50:00,
2013-04-20 14:54:00,60.9,39.4,-100.00,North,-999,-999.0,-999.0,45,-99.99,,,-99.99,,2013-04-20 21:54:00,
2013-04-20 14:59:00,60.8,39.6,-100.00,North,-999,-999.0,-999.0,45,-99.99,,,-99.99,,2013-04-20 21:59:00,
2013-04-20 15:04:00,60.1,39.2,-100.00,North,-999,-999.0,-999.0,46,-99.99,,,-99.99,,2013-04-20 22:04:00,
2013-04-20 15:09:00,60.3,39.4,-100.00,North,-999,-999.0,-999.0,46,-99.99,,,-99.99,,2013-04-20 22:09:00,
2013-04-20 15:19:00,59.9,39.1,-100.00,North,-999,-999.0,-999.0,46,-99.99,,,-99.99,,2013-04-20 22:19:00,
2013-04-20 15:20:00,60.3,40.0,-100.00,North,-999,-999.0,-999.0,47,-99.99,,,-99.99,,2013-04-20 22:20:00,
2013-04-20 15:24:00,60.2,39.9,-100.00,North,-999,-999.0,-999.0,47,-99.99,,,-99.99,,2013-04-20 22:24:00,
2013-04-20 15:29:00,59.8,39.5,-100.00,North,-999,-999.0,-999.0,47,-99.99,,,-99.99,,2013-04-20 22:29:00,
2013-04-20 15:34:00,60.3,40.0,-100.00,North,-999,-999.0,-999.0,47,-99.99,,,-99.99,,2013-04-20 22:34:00,
2013-04-20 15:39:00,60.4,40.1,-100.00,North,-999,-999.0,-999.0,47,-99.99,,,-99.99,,2013-04-20 22:39:00,
2013-04-20 15:49:00,59.5,39.3,-100.00,North,-999,-999.0,-999.0,47,-99.99,,,-99.99,,2013-04-20 22:49:00,
2013-04-20 15:50:00,59.9,39.6,-100.00,North,-999,-999.0,-999.0,47,-99.99,,,-99.99,,2013-04-20 22:50:00,
2013-04-20 15:54:00,60.1,40.3,-100.00,North,-999,-999.0,-999.0,48,-99.99,,,-99.99,,2013-04-20 22:54:00,
2013-04-20 15:59:00,60.3,40.6,-100.00,North,-999,-999.0,-999.0,48,-99.99,,,-99.99,,2013-04-20 22:59:00,
2013-04-20 16:19:00,59.6,39.9,-100.00,North,-999,-999.0,-999.0,48,-99.99,,,-99.99,,2013-04-20 23:19:00,
2013-04-20 16:20:00,59.7,40.0,-100.00,North,-999,-999.0,-999.0,48,-99.99,,,-99.99,,2013-04-20 23:20:00,
2013-04-20 16:24:00,59.2,39.5,-100.00,North,-999,-999.0,-999.0,48,-99.99,,,-99.99,,2013-04-20 23:24:00,
2013-04-20 16:29:00,59.2,39.5,-100.00,North,-999,-999.0,-999.0,48,-99.99,,,-99.99,,2013-04-20 23:29:00,
2013-04-20 16:34:00,59.4,40.2,-100.00,North,-999,-999.0,-999.0,49,-99.99,,,-99.99,,2013-04-20 23:34:00,
2013-04-20 16:39:00,59.9,40.7,-100.00,North,-999,-999.0,-999.0,49,-99.99,,,-99.99,,2013-04-20 23:39:00,
2013-04-20 16:49:00,60.3,41.1,-100.00,North,-999,-999.0,-999.0,49,-99.99,,,-99.99,,2013-04-20 23:49:00,
2013-04-20 16:50:00,60.3,41.0,-100.00,North,-999,-999.0,-999.0,49,-99.99,,,-99.99,,2013-04-20 23:50:00,
2013-04-20 16:54:00,60.3,40.5,-100.00,North,-999,-999.0,-999.0,48,-99.99,,,-99.99,,2013-04-20 23:54:00,
2013-04-20 16:59:00,60.3,40.5,-100.00,North,-999,-999.0,-999.0,48,-99.99,,,-99.99,,2013-04-20 23:59:00,
2013-04-20 17:04:00,60.4,40.9,-100.00,North,-999,-999.0,-999.0,48,-99.99,,,-99.99,,2013-04-21 00:04:00,
2013-04-20 17:09:00,60.8,41.0,-100.00,North,-999,-999.0,-999.0,48,-99.99,,,-99.99,,2013-04-21 00:09:00,
2013-04-20 17:19:00,60.8,41.0,-100.00,North,-999,-999.0,-999.0,48,-99.99,,,-99.99,,2013-04-21 00:19:00,
2013-04-20 17:20:00,60.4,40.7,-100.00,North,-999,-999.0,-999.0,48,-99.99,,,-99.99,,2013-04-21 00:20:00,
2013-04-20 17:24:00,60.9,41.1,-100.00,North,-999,-999.0,-999.0,48,-99.99,,,-99.99,,2013-04-21 00:24:00,
2013-04-20 17:29:00,61.0,41.2,-100.00,North,-999,-999.0,-999.0,48,-99.99,,,-99.99,,2013-04-21 00:29:00,
2013-04-20 17:34:00,61.0,41.2,-100.00,North,-999,-999.0,-999.0,48,-99.99,,,-99.99,,2013-04-21 00:34:00,
2013-04-20 17:39:00,61.1,41.2,-100.00,North,-999,-999.0,-999.0,48,-99.99,,,-99.99,,2013-04-21 00:39:00,
2013-04-20 17:49:00,61.2,40.8,-100.00,North,-999,-999.0,-999.0,47,-99.99,,,-99.99,,2013-04-21 00:49:00,
2013-04-20 17:50:00,61.3,41.5,-100.00,North,-999,-999.0,-999.0,48,-99.99,,,-99.99,,2013-04-21 00:50:00,
2013-04-20 17:54:00,61.2,40.9,-100.00,North,-999,-999.0,-999.0,47,-99.99,,,-99.99,,2013-04-21 00:54:00,
2013-04-20 17:59:00,61.1,40.7,-100.00,North,-999,-999.0,-999.0,47,-99.99,,,-99.99,,2013-04-21 00:59:00,
2013-04-20 18:04:00,60.6,40.3,-100.00,North,-999,-999.0,-999.0,47,-99.99,,,-99.99,,2013-04-21 01:04:00,
2013-04-20 18:09:00,60.5,40.5,-100.00,North,-999,-999.0,-999.0,47,-99.99,,,-99.99,,2013-04-21 01:09:00,
2013-04-20 18:19:00,59.5,39.8,-100.00,North,-999,-999.0,-999.0,48,-99.99,,,-99.99,,2013-04-21 01:19:00,
2013-04-20 18:20:00,59.5,39.3,-100.00,North,-999,-999.0,-999.0,47,-99.99,,,-99.99,,2013-04-21 01:20:00,
2013-04-20 18:24:00,59.5,39.8,-100.00,North,-999,-999.0,-999.0,48,-99.99,,,-99.99,,2013-04-21 01:24:00,
2013-04-20 18:29:00,58.9,39.3,-100.00,North,-999,-999.0,-999.0,48,-99.99,,,-99.99,,2013-04-21 01:29:00,
2013-04-20 18:34:00,58.6,39.0,-100.00,North,-999,-999.0,-999.0,48,-99.99,,,-99.99,,2013-04-21 01:34:00,
2013-04-20 18:39:00,58.6,39.0,-100.00,North,-999,-999.0,-999.0,48,-99.99,,,-99.99,,2013-04-21 01:39:00,
2013-04-20 18:49:00,57.6,38.0,-100.00,North,-999,-999.0,-999.0,48,-99.99,,,-99.99,,2013-04-21 01:49:00,
2013-04-20 18:50:00,58.1,38.5,-100.00,North,-999,-999.0,-999.0,48,-99.99,,,-99.99,,2013-04-21 01:50:00,
2013-04-20 18:54:00,57.2,38.2,-100.00,North,-999,-999.0,-999.0,49,-99.99,,,-99.99,,2013-04-21 01:54:00,
2013-04-20 18:59:00,56.8,37.9,-100.00,North,-999,-999.0,-999.0,49,-99.99,,,-99.99,,2013-04-21 01:59:00,
2013-04-20 19:04:00,56.8,37.9,-100.00,North,-999,-999.0,-999.0,49,-99.99,,,-99.99,,2013-04-21 02:04:00,
2013-04-20 19:09:00,56.5,38.1,-100.00,North,-999,-999.0,-999.0,50,-99.99,,,-99.99,,2013-04-21 02:09:00,
2013-04-20 19:19:00,55.8,37.7,-100.00,North,-999,-999.0,-999.0,50,-99.99,,,-99.99,,2013-04-21 02:19:00,
2013-04-20 19:20:00,56.1,37.7,-100.00,North,-999,-999.0,-999.0,50,-99.99,,,-99.99,,2013-04-21 02:20:00,
2013-04-20 19:24:00,55.4,37.6,-100.00,North,-999,-999.0,-999.0,51,-99.99,,,-99.99,,2013-04-21 02:24:00,
2013-04-20 19:29:00,55.2,37.4,-100.00,North,-999,-999.0,-999.0,51,-99.99,,,-99.99,,2013-04-21 02:29:00,
2013-04-20 19:34:00,54.7,37.4,-100.00,North,-999,-999.0,-999.0,52,-99.99,,,-99.99,,2013-04-21 02:34:00,
2013-04-20 19:39:00,54.3,37.1,-100.00,North,-999,-999.0,-999.0,52,-99.99,,,-99.99,,2013-04-21 02:39:00,
2013-04-20 19:49:00,53.6,36.9,-100.00,North,-999,-999.0,-999.0,53,-99.99,,,-99.99,,2013-04-21 02:49:00,
2013-04-20 19:50:00,54.0,37.3,-100.00,North,-999,-999.0,-999.0,53,-99.99,,,-99.99,,2013-04-21 02:50:00,
2013-04-20 19:54:00,53.2,36.6,-100.00,North,-999,-999.0,-999.0,53,-99.99,,,-99.99,,2013-04-21 02:54:00,
2013-04-20 19:59:00,53.1,36.4,-100.00,North,-999,-999.0,-999.0,53,-99.99,,,-99.99,,2013-04-21 02:59:00,
2013-04-20 20:04:00,52.7,36.5,-100.00,North,-999,-999.0,-999.0,54,-99.99,,,-99.99,,2013-04-21 03:04:00,
2013-04-20 20:09:00,52.5,36.4,-100.00,North,-999,-999.0,-999.0,54,-99.99,,,-99.99,,2013-04-21 03:09:00,
2013-04-20 20:19:00,52.3,36.7,-100.00,North,-999,-999.0,-999.0,55,-99.99,,,-99.99,,2013-04-21 03:19:00,
2013-04-20 20:20:00,52.5,36.4,-100.00,North,-999,-999.0,-999.0,54,-99.99,,,-99.99,,2013-04-21 03:20:00,
2013-04-20 20:24:00,52.2,36.5,-100.00,North,-999,-999.0,-999.0,55,-99.99,,,-99.99,,2013-04-21 03:24:00,
2013-04-20 20:29:00,52.2,36.5,-100.00,North,-999,-999.0,-999.0,55,-99.99,,,-99.99,,2013-04-21 03:29:00,
2013-04-20 20:34:00,52.0,36.3,-100.00,North,-999,-999.0,-999.0,55,-99.99,,,-99.99,,2013-04-21 03:34:00,
2013-04-20 20:39:00,52.0,36.3,-100.00,North,-999,-999.0,-999.0,55,-99.99,,,-99.99,,2013-04-21 03:39:00,
2013-04-20 20:49:00,51.8,36.6,-100.00,North,-999,-999.0,-999.0,56,-99.99,,,-99.99,,2013-04-21 03:49:00,
2013-04-20 20:50:00,52.0,36.3,-100.00,North,-999,-999.0,-999.0,55,-99.99,,,-99.99,,2013-04-21 03:50:00,
2013-04-20 20:54:00,51.8,36.6,-100.00,North,-999,-999.0,-999.0,56,-99.99,,,-99.99,,2013-04-21 03:54:00,
2013-04-20 20:59:00,51.8,36.6,-100.00,North,-999,-999.0,-999.0,56,-99.99,,,-99.99,,2013-04-21 03:59:00,
2013-04-20 21:04:00,51.8,36.6,-100.00,North,-999,-999.0,-999.0,56,-99.99,,,-99.99,,2013-04-21 04:04:00,
2013-04-20 21:09:00,51.8,36.6,-100.00,North,-999,-999.0,-999.0,56,-99.99,,,-99.99,,2013-04-21 04:09:00,
2013-04-20 21:19:00,51.8,36.6,-100.00,North,-999,-999.0,-999.0,56,-99.99,,,-99.99,,2013-04-21 04:19:00,
2013-04-20 21:20:00,51.8,36.6,-100.00,North,-999,-999.0,-999.0,56,-99.99,,,-99.99,,2013-04-21 04:20:00,
2013-04-20 21:24:00,51.8,36.6,-100.00,North,-999,-999.0,-999.0,56,-99.99,,,-99.99,,2013-04-21 04:24:00,
2013-04-20 21:29:00,51.8,36.6,-100.00,North,-999,-999.0,-999.0,56,-99.99,,,-99.99,,2013-04-21 04:29:00,
2013-04-20 21:34:00,51.8,36.6,-100.00,North,-999,-999.0,-999.0,56,-99.99,,,-99.99,,2013-04-21 04:34:00,
2013-04-20 21:39:00,52.0,36.8,-100.00,North,-999,-999.0,-999.0,56,-99.99,,,-99.99,,2013-04-21 04:39:00,
2013-04-20 21:49:00,52.0,36.8,-100.00,North,-999,-999.0,-999.0,56,-99.99,,,-99.99,,2013-04-21 04:49:00,
2013-04-20 21:50:00,52.0,36.8,-100.00,North,-999,-999.0,-999.0,56,-99.99,,,-99.99,,2013-04-21 04:50:00,
2013-04-20 21:54:00,52.0,36.8,-100.00,North,-999,-999.0,-999.0,56,-99.99,,,-99.99,,2013-04-21 04:54:00,
2013-04-20 21:59:00,52.0,36.8,-100.00,North,-999,-999.0,-999.0,56,-99.99,,,-99.99,,2013-04-21 04:59:00,
2013-04-20 22:19:00,51.6,36.9,-100.00,North,-999,-999.0,-999.0,57,-99.99,,,-99.99,,2013-04-21 05:19:00,
2013-04-20 22:20:00,51.6,36.9,-100.00,North,-999,-999.0,-999.0,57,-99.99,,,-99.99,,2013-04-21 05:20:00,
2013-04-20 22:24:00,51.6,37.3,-100.00,North,-999,-999.0,-999.0,58,-99.99,,,-99.99,,2013-04-21 05:24:00,
2013-04-20 22:29:00,51.8,37.1,-100.00,North,-999,-999.0,-999.0,57,-99.99,,,-99.99,,2013-04-21 05:29:00,
2013-04-20 22:34:00,52.0,37.2,-100.00,North,-999,-999.0,-999.0,57,-99.99,,,-99.99,,2013-04-21 05:34:00,
2013-04-20 22:39:00,52.2,37.4,-100.00,North,-999,-999.0,-999.0,57,-99.99,,,-99.99,,2013-04-21 05:39:00,
2013-04-20 22:49:00,52.2,37.4,-100.00,North,-999,-999.0,-999.0,57,-99.99,,,-99.99,,2013-04-21 05:49:00,
2013-04-20 22:50:00,52.2,37.4,-100.00,North,-999,-999.0,-999.0,57,-99.99,,,-99.99,,2013-04-21 05:50:00,
2013-04-20 22:54:00,52.2,37.4,-100.00,North,-999,-999.0,-999.0,57,-99.99,,,-99.99,,2013-04-21 05:54:00,
2013-04-20 22:59:00,52.1,37.3,-100.00,North,-999,-999.0,-999.0,57,-99.99,,,-99.99,,2013-04-21 05:59:00,
2013-04-20 23:04:00,52.0,37.2,-100.00,North,-999,-999.0,-999.0,57,-99.99,,,-99.99,,2013-04-21 06:04:00,
2013-04-20 23:09:00,52.0,37.7,-100.00,North,-999,-999.0,-999.0,58,-99.99,,,-99.99,,2013-04-21 06:09:00,
2013-04-20 23:19:00,51.9,37.6,-100.00,North,-999,-999.0,-999.0,58,-99.99,,,-99.99,,2013-04-21 06:19:00,
2013-04-20 23:20:00,52.0,37.7,-100.00,North,-999,-999.0,-999.0,58,-99.99,,,-99.99,,2013-04-21 06:20:00,
2013-04-20 23:24:00,51.8,37.5,-100.00,North,-999,-999.0,-999.0,58,-99.99,,,-99.99,,2013-04-21 06:24:00,
2013-04-20 23:29:00,51.8,37.5,-100.00,North,-999,-999.0,-999.0,58,-99.99,,,-99.99,,2013-04-21 06:29:00,
2013-04-20 23:34:00,51.6,37.3,-100.00,North,-999,-999.0,-999.0,58,-99.99,,,-99.99,,2013-04-21 06:34:00,
2013-04-20 23:39:00,51.6,37.5,-100.00,North,-999,-999.0,-999.0,58,-99.99,,,-99.99,,2013-04-21 06:39:00,
2013-04-20 23:49:00,51.4,37.6,-100.00,North,-999,-999.0,-999.0,59,-99.99,,,-99.99,,2013-04-21 06:49:00,
2013-04-20 23:50:00,51.3,37.4,-100.00,North,-999,-999.0,-999.0,59,-99.99,,,-99.99,,2013-04-21 06:50:00,
2013-04-20 23:54:00,51.4,37.6,-100.00,North,-999,-999.0,-999.0,59,-99.99,,,-99.99,,2013-04-21 06:54:00,
2013-04-20 23:59:00,51.3,37.4,-100.00,North,-999,-999.0,-999.0,59,-99.99,,,-99.99,,2013-04-21 06:59:00,